STARLINK-4751 (53825 NORAD) Tracking and Keplerian Element Data

This shows tracking and keplerian element data for the satellite.

Feedback or suggestion? Click here.




ElementValue
Catalog53825
NameSTARLINK-4751
Epoch Orbit1046
Epoch Day325.33334491
Epoch Year2022
RAAN310.8591
Inclination53.217
Eccentricity0.0001324
Argument of Perigee72.8611
Mean Anonmoly226.7397
Mean Motion15.13945506
Decay Rate-0.0115027
L11 53825U 22114H 22325.33334491 -.01150270 00000+0 -68105-1 0 9995
L22 53825 53.2170 310.8591 0001324 72.8611 226.7397 15.13945506 10461



Live tracking and technical data element details for STARLINK-4751 (NORAD 53825). STARLINK-4751 can be tracked NOW for your location showing map with azimuth and elevation plus other details from your city location.







IsCatalogInMostPopularTable: catalog: 53825, numindb: -1

Insert: records affected: 1


GetName: 53825 STARLINK-4751

Hit Count: inserted at: Thu, 08 Dec 2022 09:57:14 GMT